This is the latest recevied weather packets stored in our database for station/object K0CVS. If no packets are shown the sender has not sent any weather packets the latest 10 day(s).
| Time | Temp. | Humidity | Pressure | Rain* | Wind** | Luminosity | Snow |
|---|---|---|---|---|---|---|---|
| 1778114761 | 13.33° C | 42% | 1017.3 hPa | 0 mm | - | 7 W/m² | - |
| 1778114458 | 13.89° C | 39% | 1017.5 hPa | 0 mm | - | 8 W/m² | - |
| 1778114154 | 13.89° C | 42% | 1017.3 hPa | 1.78 mm | - | 9 W/m² | - |
| 1778113849 | 14.44° C | 35% | 1017.4 hPa | 1.78 mm | - | 10 W/m² | - |
| 1778113546 | 14.44° C | 34% | 1017.3 hPa | 0 mm | - | 11 W/m² | - |
| 1778113242 | 14.44° C | 34% | 1017.3 hPa | 0 mm | - | 12 W/m² | - |
| 1778112939 | 14.44° C | 34% | 1017.5 hPa | 0 mm | - | 13 W/m² | - |
| 1778112636 | 14.44° C | 34% | 1017.4 hPa | 0 mm | - | 14 W/m² | - |
| 1778112332 | 14.44° C | 34% | 1017.3 hPa | 0 mm | - | 15 W/m² | - |
| 1778112028 | 15° C | 33% | 1017.3 hPa | 0 mm | - | 16 W/m² | - |
| 1778111726 | 15° C | 34% | 1017.2 hPa | 0 mm | - | 16 W/m² | - |
| 1778111421 | 15° C | 33% | 1017.4 hPa | 0 mm | - | 18 W/m² | - |
| 1778111119 | 15° C | 33% | 1017.4 hPa | 0 mm | - | 18 W/m² | - |
| 1778110816 | 15° C | 34% | 1017.3 hPa | 0 mm | - | 18 W/m² | - |
| 1778110512 | 15° C | 33% | 1017.4 hPa | 0 mm | - | 19 W/m² | - |
| 1778110210 | 15° C | 32% | 1017.6 hPa | 0 mm | - | 20 W/m² | - |
| 1778109905 | 15° C | 33% | 1017.3 hPa | 0 mm | - | 20 W/m² | - |
| 1778109601 | 15° C | 34% | 1017.4 hPa | 0 mm | - | 21 W/m² | - |
| 1778109299 | 15° C | 34% | 1017.2 hPa | 0 mm | - | 22 W/m² | - |
| 1778108996 | 15° C | 33% | 1017.5 hPa | 0 mm | - | 23 W/m² | - |
| 1778108692 | 15° C | 32% | 1017.4 hPa | 0 mm | - | 23 W/m² | - |
| 1778108389 | 15° C | 33% | 1017.3 hPa | 0 mm | - | 24 W/m² | - |
| 1778108086 | 15° C | 34% | 1017.4 hPa | 0 mm | - | 25 W/m² | - |
| 1778107783 | 15° C | 33% | 1017.3 hPa | 0 mm | - | 26 W/m² | - |
| 1778107480 | 15° C | 33% | 1017.6 hPa | 0 mm | - | 26 W/m² | - |
* Rain latest hour (hover to see other rain measurements)
** Current wind speed in m/s (hover to see current wind gust speed)